User: anonymous   Login
Location: Bush Observatory
(40.2653°N, 94.3194°W)
Time: 08:06:53
(UTC-05:00)
Language:

Cosmos 1933 Rocket - Orbit

View from above orbital plane
View from above orbital plane
View from above satellite
View from above satellite

Ground track
Ground track

The orbit data is extracted from the following two-line orbital elements,

1 18959U 88020B   16211.57528136  .00000092  00000-0  83004-5 0  9999
2 18959  82.5359 212.2570 0018311 118.6648 241.6411 14.83287710532755
Epoch (UTC): 29 July 2016 13:48:24
Eccentricity: 0.0018311
inclination: 82.5359°
perigee height: 606 km
apogee height: 632 km
right ascension of ascending node: 212.2570°
argument of perigee: 118.6648°
revolutions per day: 14.83287710
mean anomaly at epoch: 241.6411°
orbit number at epoch: 53275

The dashed part of the orbit path shows where the satellite is in the earth's shadow,  

DLR